Junction, TX

8:50 PM CST on February 13, 2016 (GMT -0600)
Kimble County

Weather History for KJCT - November, 2013

Change the Weather History Date:

Saturday, November 30, 2013

  Actual Average Record
Temperature  
Mean Temperature 55 °F -  
Max Temperature 66 °F 62 °F - (-1)
Min Temperature 44 °F 37 °F - (-1)
Degree Days  
Heating Degree Days 10    
Growing Degree Days 5 (Base 50)    
Moisture  
Dew Point 47 °F    
Average Humidity 82    
Maximum Humidity 100    
Minimum Humidity 59    
Precipitation  
Precipitation 0.00 in - - ()
Sea Level Pressure  
Sea Level Pressure 30.22 in    
Wind  
Wind Speed 4 mph (WSW)    
Max Wind Speed 15 mph    
Max Gust Speed 26 mph    
Visibility 8 miles    
Events      
Averages and records for this station are not official NWS values.
T = Trace of Precipitation, MM = Missing Value Source: NWS Daily Summary

Daily Weather History Graph

Daily Weather History Graph

Search for Another Location

Airport or City:

Trip Planner

Search our weather history database for the weather conditions in past years. The results will help you decide how hot, cold, wet, or windy it might be!

Date:

Astronomy

Nov. 30, 2013 Rise Set
Actual Time 7:17 AM CST 5:37 PM CST
Civil Twilight 6:51 AM CST 6:03 PM CST
Nautical Twilight 6:22 AM CST 6:33 PM CST
Astronomical Twilight 5:52 AM CST 7:02 PM CST
Moon 4:39 AM CST (11/30) 3:55 PM CST (11/30)
Length of Visible Light 11h 12m
Length of Day
10h 19m
Waning Crescent, 7% of the Moon is Illuminated
Nov 30
Waning Crescent
Dec 2
New
Dec 9
First Quarter
Dec 17
Full
Dec 25
Last Quarter

Hourly Weather History & Observations

Time (CST) Temp. Windchill Dew Point Humidity Pressure Visibility Wind Dir Wind Speed Gust Speed Precip Events Conditions
12:51 AM 39.9 °F 37.8 °F 39.0 °F 97% 30.27 in 6.0 mi West 3.5 mph - N/A   Clear
1:51 AM 39.0 °F - 39.0 °F 100% 30.26 in 6.0 mi Calm Calm - N/A   Partly Cloudy
2:20 AM 39.2 °F 35.9 °F 39.2 °F 100% 30.30 in 6.0 mi NW 4.6 mph - N/A   Mostly Cloudy
2:51 AM 39.0 °F - 37.9 °F 96% 30.24 in 6.0 mi Calm Calm - N/A   Overcast
3:51 AM 41.0 °F 39.0 °F 39.9 °F 96% 30.23 in 7.0 mi WNW 3.5 mph - N/A   Overcast
4:37 AM 42.8 °F 41.1 °F 41.0 °F 93% 30.28 in 7.0 mi NW 3.5 mph - N/A   Overcast
4:51 AM 43.0 °F 41.3 °F 41.0 °F 93% 30.23 in 8.0 mi NW 3.5 mph - N/A   Overcast
5:15 AM 44.6 °F 43.1 °F 44.6 °F 100% 30.29 in 8.0 mi WNW 3.5 mph - N/A   Overcast
5:51 AM 45.0 °F 43.5 °F 43.0 °F 93% 30.25 in 8.0 mi NW 3.5 mph - N/A   Overcast
6:39 AM 44.6 °F - 42.8 °F 93% 30.29 in 8.0 mi Calm Calm - N/A   Overcast
6:51 AM 46.0 °F - 44.1 °F 93% 30.25 in 8.0 mi Calm Calm - N/A   Overcast
7:51 AM 51.1 °F - 48.0 °F 89% 30.26 in 7.0 mi Calm Calm - N/A   Overcast
8:51 AM 53.1 °F - 50.0 °F 89% 30.28 in 8.0 mi SSW 3.5 mph - N/A   Overcast
8:58 AM 53.6 °F - 50.0 °F 88% 30.33 in 9.0 mi SSW 3.5 mph - N/A   Overcast
9:51 AM 55.9 °F - 51.1 °F 84% 30.27 in 8.0 mi Calm Calm - N/A   Overcast
10:51 AM 59.0 °F - 51.1 °F 75% 30.27 in 9.0 mi SW 6.9 mph 16.1 mph N/A   Overcast
11:51 AM 61.0 °F - 51.1 °F 70% 30.24 in 9.0 mi SSW 13.8 mph 25.3 mph N/A   Overcast
12:51 PM 63.0 °F - 51.1 °F 65% 30.21 in 9.0 mi SSW 13.8 mph 25.3 mph N/A   Overcast
1:41 PM 64.4 °F - 51.8 °F 64% 30.23 in 9.0 mi SSW 15.0 mph 26.5 mph N/A   Scattered Clouds
1:51 PM 64.9 °F - 51.1 °F 61% 30.17 in 9.0 mi SW 15.0 mph 24.2 mph N/A   Partly Cloudy
2:51 PM 64.9 °F - 51.1 °F 61% 30.15 in 9.0 mi SSW 13.8 mph 19.6 mph N/A   Partly Cloudy
3:51 PM 66.0 °F - 51.1 °F 59% 30.12 in 9.0 mi South 9.2 mph - N/A   Clear
4:51 PM 64.0 °F - 51.1 °F 63% 30.13 in 9.0 mi South 12.7 mph - N/A   Partly Cloudy
5:51 PM 61.0 °F - 51.1 °F 70% 30.14 in 9.0 mi South 6.9 mph - N/A   Mostly Cloudy
6:51 PM 62.1 °F - 51.1 °F 67% 30.15 in 10.0 mi SSW 8.1 mph - N/A   Overcast
7:51 PM 60.1 °F - 51.1 °F 72% 30.14 in 10.0 mi Variable 4.6 mph - N/A   Overcast
8:51 PM 57.0 °F - 50.0 °F 77% 30.15 in 9.0 mi Calm Calm - N/A   Partly Cloudy
9:51 PM 53.1 °F - 48.9 °F 86% 30.14 in 9.0 mi Calm Calm - N/A   Clear
10:51 PM 48.9 °F - 48.0 °F 97% 30.14 in 8.0 mi Calm Calm - N/A   Clear
11:51 PM 46.9 °F - 45.0 °F 93% 30.14 in 8.0 mi West 3.5 mph - N/A   Clear